Burnsville, North Carolina, United States (28714)
Lat: 35.92N, Lon: 82.3W
Wx Zone: NCZ049
Local Info
Past Weather Observations for Today

NOTE: This archive is for the closest National Weather Service station to Burnsville. Information may differ from the station used for current weather conditions.

Click here for Long-term Archive

Time Weather Temperature Dewpoint Humidity Pressure Winds Precip Visibility
22:54
Clear
63°F / 17°C 59°F / 15°C 88% 30.12 in
(1020 mb)
Calm - 10SM
21:54
Clear
63°F / 17°C 61°F / 16°C 94% 30.12 in
(1020 mb)
W 3.5 mph
(W 6 kph)
- 10SM
20:54
Partly Cloudy
64°F / 18°C 61°F / 16°C 88% 30.09 in
(1019 mb)
Calm - 10SM
19:54
Partly Cloudy
66°F / 19°C 63°F / 17°C 88% 30.09 in
(1019 mb)
Calm - 10SM
18:54
Mostly Cloudy
70°F / 21°C 61°F / 16°C 73% 30.06 in
(1018 mb)
S 3.5 mph
(S 6 kph)
0.00 in
(0.00 mm)
10SM
17:54
Mostly Cloudy
72°F / 22°C 61°F / 16°C 69% 30.06 in
(1018 mb)
Calm - 10SM
16:54
Partly Cloudy
75°F / 24°C 59°F / 15°C 57% 30.04 in
(1017 mb)
S 9.2 mph
(S 15 kph)
- 10SM
15:54
Clear
75°F / 24°C 61°F / 16°C 61% 30.04 in
(1017 mb)
SE 5.8 mph
(SE 9 kph)
- 10SM
14:54
Partly Cloudy
75°F / 24°C 57°F / 14°C 54% 30.04 in
(1017 mb)
Variable 3.5 mph
(Variable 6 kph)
- 10SM
13:54
Mostly Cloudy
79°F / 26°C 57°F / 14°C 48% 30.04 in
(1017 mb)
Variable 3.5 mph
(Variable 6 kph)
- 10SM
12:54
Mostly Cloudy
75°F / 24°C 55°F / 13°C 50% 30.06 in
(1018 mb)
SSE 4.6 mph
(SSE 7 kph)
- 10SM
11:54
Partly Cloudy
75°F / 24°C 57°F / 14°C 54% 30.06 in
(1018 mb)
Calm - 10SM
10:54
Clear
73°F / 23°C 59°F / 15°C 61% 30.09 in
(1019 mb)
Calm - 10SM
09:54
Clear
66°F / 19°C 57°F / 14°C 73% 30.09 in
(1019 mb)
N 4.6 mph
(N 7 kph)
- 10SM
08:54
Partly Cloudy
61°F / 16°C 55°F / 13°C 83% 30.09 in
(1019 mb)
NW 3.5 mph
(NW 6 kph)
- 10SM
07:54
Partly Cloudy
Fog And Mist
55°F / 13°C 54°F / 12°C 94% 30.09 in
(1019 mb)
Calm - 4SM
07:33
Partly Cloudy
Fog And Mist
54°F / 12°C 52°F / 11°C 94% 30.09 in
(1019 mb)
Calm - 2SM
07:12
Mostly Cloudy
Fog And Mist
54°F / 12°C 52°F / 11°C 94% 30.09 in
(1019 mb)
Calm - 2SM
06:54
Partly Cloudy
Fog And Mist
52°F / 11°C 50°F / 10°C 94% 30.06 in
(1018 mb)
Calm - 2SM
06:40
Partly Cloudy
Fog And Mist
52°F / 11°C 48°F / 9°C 88% 30.06 in
(1018 mb)
Calm - 3SM
06:25
Partly Cloudy
Fog And Mist
50°F / 10°C 48°F / 9°C 94% 30.06 in
(1018 mb)
Calm - 1 3/4SM
05:54
Clear
52°F / 11°C 48°F / 9°C 88% 30.06 in
(1018 mb)
Calm - 10SM
04:54
Clear
52°F / 11°C 50°F / 10°C 94% 30.04 in
(1017 mb)
Calm - 9SM
04:18
Partly Cloudy
52°F / 11°C 50°F / 10°C 94% 30.04 in
(1017 mb)
Calm - 10SM
04:11
Mostly Cloudy
Fog And Mist
52°F / 11°C 50°F / 10°C 94% 30.04 in
(1017 mb)
Calm - 4SM
04:09
Mostly Cloudy
Fog And Mist
52°F / 11°C 50°F / 10°C 94% 30.04 in
(1017 mb)
Calm - 1 1/2SM
03:52
Obscured
Fog And Mist
52°F / 11°C 50°F / 10°C 94% 30.04 in
(1017 mb)
Calm - 3/4SM
03:51
Obscured
Fog And Mist
52°F / 11°C 50°F / 10°C 94% 30.04 in
(1017 mb)
Calm - 3/4SM
03:44
Mostly Cloudy
Fog And Mist
52°F / 11°C 50°F / 10°C 94% 30.04 in
(1017 mb)
SSE 3.5 mph
(SSE 6 kph)
- 1 3/4SM
03:39
Partly Cloudy
Fog And Mist
54°F / 12°C 52°F / 11°C 94% 30.04 in
(1017 mb)
Calm - 2SM
03:35
Partly Cloudy
Fog And Mist
54°F / 12°C 52°F / 11°C 94% 30.04 in
(1017 mb)
Calm - 1 1/4SM
03:13
Obscured
Fog
52°F / 11°C 52°F / 11°C 100% 30.01 in
(1016 mb)
Calm - 1/2SM
03:01
Obscured
Fog
52°F / 11°C 52°F / 11°C 100% 30.01 in
(1016 mb)
Calm - 1/4SM
02:54
Obscured
Fog
54°F / 12°C 52°F / 11°C 94% 30.01 in
(1016 mb)
Calm - 1/2SM
02:49
Obscured
Fog And Mist
54°F / 12°C 52°F / 11°C 94% 30.01 in
(1016 mb)
Calm - 1SM
02:47
Partly Cloudy
Fog And Mist
54°F / 12°C 52°F / 11°C 94% 30.01 in
(1016 mb)
Calm - 1 1/2SM
02:37
Partly Cloudy
Fog And Mist
54°F / 12°C 52°F / 11°C 94% 30.01 in
(1016 mb)
Calm - 1 1/4SM
02:31
Partly Cloudy
Fog And Mist
54°F / 12°C 52°F / 11°C 94% 30.01 in
(1016 mb)
Calm - 2 1/2SM
01:54
Clear
54°F / 12°C 52°F / 11°C 94% 30.01 in
(1016 mb)
Calm - 8SM
00:54
Clear
55°F / 13°C 54°F / 12°C 94% 30.04 in
(1017 mb)
Calm - 10SM
Time Weather Temperature Dewpoint Humidity Pressure Winds Precip Visibility


Weather for websites

WeatherForYou.com, LLC is not responsible for any damages or problems caused by this service. Current weather conditions are obtained from the closest station including government and personal stations which may have varying degrees of accuracy. Weather forecasts are derived from the NOAA NDFD. Like all things, this site belongs to Jesus Christ... He just trusts me to maintain it. If you have any questions or comments email webmaster@weatherforyou.com

Copyright © 2014, WeatherForYou.com LLC. All rights reserved.